Regional Weather Roundup
Issued by NWS Sioux Falls, SD

Home | Current Version | Previous Version | Graphics & Text | Print | Product List | Glossary Off
Versions: 1 2 3 4 5 6 7 8 9 10 11 12 13 14 15 16 17 18 19 20 21 22 23 24 25 26 27 28 29 30 31 32 33 34 35 36 37 38 39 40 41 42 43 44 45 46 47 48 49 50

000
ASUS43 KFSD 291310
RWRFSD

WEATHER ROUNDUP FOR SE SOUTH DAKOTA/SW MINNESOTA/NW IOWA
NATIONAL WEATHER SERVICE SIOUX FALLS SD
800 AM CDT SAT AUG 29 2015

NOTE: "FAIR" INDICATES FEW OR NO CLOUDS BELOW 12,000 FEET WITH NO
SIGNIFICANT WEATHER AND OR OBSTRUCTIONS TO VISIBILITY.


SDZ038>040-050-052>070-291400-
SOUTHEAST SOUTH DAKOTA

CITY           SKY/WX    TMP DP  RH WIND       PRES   REMARKS
BROOKINGS      MOSUNNY   54  50  87 SE5       30.08R VSB 1/2
CHAMBERLAIN    MOSUNNY   60  60 100 SE5       30.03S FOG
HURON          SUNNY     59  57  93 S7        30.03R
MADISON        FAIR      54  54 100 S5        30.07R
MITCHELL       SUNNY     59  58  96 S6        30.06R
SIOUX FALLS    SUNNY     55  54  96 CALM      30.08R
WINNER         FAIR      66  60  81 SW9       30.04R
YANKTON        CLOUDY    55  55 100 S3        30.07S VSB<1/4
$$

MNZ071-072-080-081-089-090-097-098-291400-
SOUTHWEST MINNESOTA

CITY           SKY/WX    TMP DP  RH WIND       PRES   REMARKS
FAIRMONT       CLOUDY    55  52  88 CALM      30.06R VSB<1/4
JACKSON        FOG       55  55 100 CALM      30.07S VSB<1/4
LUVERNE        FOG       52  52 100 CALM      30.09R VSB 1/2
MARSHALL       SUNNY     54  48  82 SE5       30.06S
MONTEVIDEO     SUNNY     55  54  94 S3        30.07S FOG
PIPESTONE      FOG       52  52 100 CALM      30.07S VSB<1/4
REDWOOD FALLS  FOG       52  51  97 S3        30.06R VSB<1/4
TRACY          SUNNY     56  55  97 SW5       30.08R
WINDOM         FOG       55  55 100 CALM      30.07R VSB<1/4
WORTHINGTON    CLOUDY    54  50  87 CALM      30.08R VSB 1/4
$$

IAZ001>003-012>014-020>022-031-032-NEZ013-014-SDZ071-291400-
NORTHWEST IOWA

CITY           SKY/WX    TMP DP  RH WIND       PRES   REMARKS
CHEROKEE       CLOUDY    58  58 100 CALM      30.07R FOG
DENISON        CLOUDY    59  59 100 NE5       30.04R FOG
ESTHERVILLE    FOG       56  56 100 N6        30.06R VSB 1/4
LE MARS        FOG       57  57 100 N5        30.08R VSB 1/2
ORANGE CITY    FOG       57  57 100 CALM      30.08R VSB 1/2
SHELDON        FOG       57  57 100 CALM      30.06R VSB 1/4
SIOUX CITY     CLOUDY    61  56  83 N3        30.07R
SPENCER        CLOUDY    57  55  93 CALM      30.07R FOG
STORM LAKE     CLOUDY    57  57 100 N7        30.07R FOG
$$

ABBREVIATIONS USED IN REMARKS
   TC - TEMPERATURE IN CELSIUS
  WCI - WIND CHILL INDEX
   HX - HEAT INDEX
  VSB - VISIBILITY



USA.gov is the U.S. government's official web portal to all federal, state and local government web resources and services.